Torna al catalogo

FENGYUN 1C DEB

AttivoPO
NORAD 37474·DEBRIS·🇨🇳 China

Lanciato May 10, 1999 da Taiyuan Satellite Launch Center

Loading…

Prossimi Passaggi (prossime 24 ore)

TLE

ObsoletoSource: Space-Track

Epoca: Sep 2, 2026, 21:59 UTC

1 37474U 99025EJU 26245.91659330  .00005276  00000-0  62461-3 0  9997
2 37474  99.1357 131.7867 0122970  31.1506 329.6916 14.79800731662775

Traccia FENGYUN 1C DEB in tempo reale con AllMySat

Download on the App Store